This demonstration page uses our WeatherBlox Daily Observations layout. Learn more.

Left ArrowRight Arrow

47.50024, -111.30081

Hourly Observations for October 1, 2022

Temp ( °F °C ) Dew Point ( °F °C ) Humidity (%) Winds ( mph kmh ) Pressure ( in mb ) Visibility ( mi km ) Precip ( " mm )
12:15 am 00:15 Cloudy with Light Rain 52 11.1 51 10.6 97 97 NNW 8 13 30.11 1020 3 5 0.01 0.25
12:32 am 00:32 Cloudy with Light Rain 52 11.1 51 10.6 97 97 NNW 8 13 30.10 1019 3 5 0.02 0.51
12:41 am 00:41 Cloudy with Light Rain 52 11.1 51 10.6 97 97 N 9 15 30.11 1020 3 5 0.02 0.51
12:53 am 00:53 Cloudy with Light Rain 52 11.1 51 10.6 97 97 NNW 9 15 30.16 1021 3 5 0.03 0.76
1:53 am 01:53 Cloudy with Light Rain 52 11.1 50 10 93 93 N 13 20 30.16 1021 8 13 0.01 0.25
2:53 am 02:53 Cloudy with Light Rain 52 11.1 49 9.4 89 89 N 10 17 30.17 1022 8 13 0.01 0.25
3:53 am 03:53 Cloudy 51 10.6 49 9.4 92 92 NNW 9 15 30.17 1022 9 14 0.01 0.13
4:53 am 04:53 Mostly Cloudy 50 10 48 8.9 93 93 NNW 7 11 30.18 1022 9 14 0.00 0.00
5:46 am 05:46 Mostly Cloudy 50 10 48 8.9 93 93 NNW 8 13 30.15 1021 7 11 0.00 0.00
5:53 am 05:53 Mostly Cloudy 50 10 48 8.9 93 93 NNW 7 11 30.18 1022 7 11 0.00 0.00
6:33 am 06:33 Cloudy 50 10 48 8.9 93 93 N 10 17 30.15 1021 9 14 0.00 0.00
6:45 am 06:45 Cloudy 50 10 48 8.9 93 93 N 12 19 30.15 1021 8 13 0.00 0.00
6:53 am 06:53 Cloudy 50 10 48 8.9 93 93 N 13 20 30.19 1022 8 13 0.00 0.00
7:01 am 07:01 Cloudy 50 10 48 8.9 93 93 N 12 19 30.15 1021 8 13 0.00 0.00
7:21 am 07:21 Cloudy 50 10 48 8.9 93 93 N 12 19 30.15 1021 8 13 0.00 0.00
7:53 am 07:53 Cloudy 50 10 47 8.3 89 89 N 13 20 30.19 1022 7 11 0.00 0.00
8:01 am 08:01 Cloudy with Mist and Fog 49 9.4 47 8.3 93 93 N 13 20 30.16 1021 6 10 0.00 0.00
8:53 am 08:53 Cloudy with Mist and Fog 49 9.4 47 8.3 93 93 N 10 17 30.20 1023 6 10 0.00 0.00
9:53 am 09:53 Cloudy 50 10 48 8.9 93 93 NNE 9 15 30.21 1023 9 14 0.00 0.00
10:40 am 10:40 Cloudy 51 10.6 47 8.3 86 86 NNE 9 15 30.17 1022 10 16 0.00 0.00
10:53 am 10:53 Cloudy 51 10.6 47 8.3 86 86 N 12 19 30.21 1023 10 16 0.00 0.00
11:53 am 11:53 Cloudy 51 10.6 48 8.9 89 89 N 8 13 30.21 1023 10 16 0.01 0.25
12:53 pm 12:53 Cloudy with Light Rain 51 10.6 48 8.9 89 89 N 7 11 30.21 1023 5 8 0.02 0.51
1:42 pm 13:42 Cloudy with Light Rain 52 11.1 49 9.4 89 89 N 7 11 30.14 1021 7 11 0.02 0.51
1:53 pm 13:53 Cloudy with Light Rain 51 10.6 49 9.4 92 92 N 9 15 30.19 1023 7 11 0.02 0.51
2:53 pm 14:53 Cloudy with Light Rain 51 10.6 49 9.4 92 92 NNE 10 17 30.18 1022 6 10 0.03 0.76
3:33 pm 15:33 Cloudy with Rain 51 10.6 49 9.4 92 92 NNE 10 17 30.14 1021 4 6 0.06 1.52
3:53 pm 15:53 Cloudy with Light Rain 51 10.6 49 9.4 92 92 N 9 15 30.19 1022 5 8 0.09 2.29
4:27 pm 16:27 Cloudy with Rain 50 10 48 8.9 93 93 NNE 10 17 30.14 1021 3 5 0.05 1.27
4:53 pm 16:53 Cloudy with Light Rain 51 10.6 49 9.4 92 92 N 7 11 30.18 1022 5 8 0.07 1.78
4:58 pm 16:58 Cloudy with Light Rain 51 10.6 49 9.4 92 92 N 8 13 30.12 1020 5 8 0.01 0.25
5:12 pm 17:12 Cloudy with Light Rain 51 10.6 49 9.4 92 92 N 9 15 30.12 1020 5 8 0.02 0.51
5:49 pm 17:49 Cloudy with Light Rain 52 11 48 9 87 87 N 6 9 30.11 1020 7 11 0.03 0.76
5:53 pm 17:53 Cloudy with Light Rain 51 10.6 49 9.4 92 92 N 6 9 30.17 1022 8 13 0.03 0.76
6:53 pm 18:53 Cloudy 51 10.6 49 9.4 92 92 NE 3 6 30.16 1022 10 16 0.01 0.13
7:05 pm 19:05 Cloudy 51 10.6 48 8.9 89 89 NE 5 7 30.11 1020 10 16 0.00 0.00
7:53 pm 19:53 Cloudy 50 10 48 8.9 93 93 NNE 5 7 30.17 1022 10 16 0.00 0.00
8:05 pm 20:05 Cloudy 50 10 48 8.9 93 93 NNE 5 7 30.12 1020 10 16 0.00 0.00
8:15 pm 20:15 Cloudy 50 10 48 8.9 93 93 NE 5 7 30.13 1020 10 16 0.00 0.00
8:43 pm 20:43 Cloudy with Mist and Fog 50 10 48 8.9 93 93 NNE 3 6 30.12 1020 6 10 0.00 0.00
8:53 pm 20:53 Cloudy with Mist and Fog 50 10 49 9.4 96 96 NNE 3 6 30.16 1022 6 10 0.00 0.00
9:50 pm 21:50 Cloudy 50 10 48 9 93 93 ENE 3 6 30.11 1019 9 14 0.00 0.00
9:53 pm 21:53 Cloudy 50 10 49 9.4 96 96 E 3 6 30.16 1021 10 16 0.00 0.00
10:13 pm 22:13 Cloudy 50 10 48 8.9 93 93 E 5 7 30.10 1019 10 16 0.00 0.00
10:32 pm 22:32 Cloudy 50 10 48 8.9 93 93 Calm 30.10 1019 10 16 0.00 0.00
10:46 pm 22:46 Cloudy 51 10.6 48 8.9 89 89 ENE 5 7 30.09 1019 10 16 0.00 0.00
10:53 pm 22:53 Cloudy 50 10 48 8.9 93 93 ENE 3 6 30.14 1021 10 16 0.00 0.00
11:00 pm 23:00 Cloudy 50 10 48 8.9 93 93 ENE 5 7 30.10 1019 10 16 0.00 0.00
11:53 pm 23:53 Cloudy 50 10 48 8.9 93 93 Calm 30.13 1020 10 16 0.00 0.00

Powered by AerisWeather